Regional Weather Roundup
Issued by NWS

Home | Current Version | Previous Version | Text Only | Print | Product List | Glossary Off
Versions: 1 2 3 4 5 6 7 8 9 10 11 12 13 14 15 16 17 18 19 20 21 22 23 24 25 26 27 28 29 30 31 32 33 34 35 36 37 38 39 40 41 42 43 44 45 46 47 48 49 50

000
ASUS43 KIND 041009
RWRIN

WEATHER ROUNDUP FOR INDIANA
NATIONAL WEATHER SERVICE INDIANAPOLIS IN
500 AM EST SUN DEC 04 2016

NOTE: "FAIR" INDICATES FEW OR NO CLOUDS BELOW 12,000 FEET WITH NO
SIGNIFICANT WEATHER AND/OR OBSTRUCTIONS TO VISIBILITY.

* - STATION DOES NOT REPORT WEATHER SUCH AS PRECIPITATION OR FOG.

+ - STATION NOT QUALITY CONTROLLED BY THE NATIONAL WEATHER SERVICE.
    USE DATA WITH CAUTION...ESPECIALLY DEWPOINT AND RELATIVE
    HUMIDITY OBSERVATIONS.

INZ001>003-010>013-019-020-041100-
NORTHWEST INDIANA

CITY           SKY/WX    TMP DP  RH WIND       PRES   REMARKS
KNOX *+        CLOUDY    30  16  55 CALM      30.22S
LA PORTE +     MOCLDY    32  32 100 CALM      30.22F
MICHIGAN CITY+ CLOUDY    32  28  86 CALM      30.23F
MONTICELLO +   CLOUDY    32  25  74 E5        30.20F WCI  27
RENSSELAER +     N/A     32  30  93 E6        30.21F WCI  26
VALPARAISO     CLOUDY    31  27  85 NE3       30.22F

$$

LMZ046-743>745-041100-
SOUTHERN LAKE MICHIGAN

STATION/POSITION TIME  TEMP    WIND        PRES    WAVE
                       AIR SEA DIR/SP/G            HT
                 (UTC) (F)     (DEG/KT/KT) (MB)    (FT)
BURNS HARBOR     0940   33     180/  5/  7 1024.0F
MICHIGAN CITY    0940   33     140/  5/  6   N/A

$$

INZ004-005-014>016-021>024-041100-
NORTH CENTRAL INDIANA

CITY           SKY/WX    TMP DP  RH WIND       PRES   REMARKS
GOSHEN         CLOUDY    32  26  78 E3        30.22F
LOGANSPORT +   CLOUDY    32  27  80 E3        30.21F
PERU/GRISSOM   CLOUDY    31  27  84 E6        30.18F WCI  26
ROCHESTER +    MOCLDY    32  32 100 CALM      30.21F
SOUTH BEND     MOCLDY    31  26  82 E5        30.23F WCI  26
WARSAW +       MOCLDY    30  27  86 CALM      30.22F

$$

INZ006>009-017-018-025>027-041100-
NORTHEAST INDIANA

CITY           SKY/WX    TMP DP  RH WIND       PRES   REMARKS
ANGOLA *+      CLOUDY    30  28  93 CALM      30.21F
AUBURN +       CLOUDY    32  28  86 CALM      30.23F
FORT WAYNE     CLOUDY    32  27  81 E6        30.22F WCI  26
HUNTINGTON +   CLOUDY    32  28  86 E3        30.21F
KENDALLVILLE + CLOUDY    32  28  86 E3        30.21F

$$

INZ028-029-035-036-043>045-051>053-041100-
WEST CENTRAL INDIANA

CITY           SKY/WX    TMP DP  RH WIND       PRES   REMARKS
CRAWFORDSVL +  MOCLDY    31  30  94 E5        30.19S WCI  27
GREENCASTLE +  CLOUDY    32  32 100 SE3       30.20S
LAFAYETTE      CLOUDY    33  28  81 E7        30.21F WCI  27
TERRE HAUTE    CLOUDY    34  29  82 E6        30.20F WCI  29

$$

INZ030>032-037>040-046>048-054>057-064-065-041100-
CENTRAL INDIANA

CITY           SKY/WX    TMP DP  RH WIND       PRES   REMARKS
CP ATTERBURY + CLOUDY    32  32 100 CALM      30.21S
FISHERS *+     CLOUDY    32  30  93 CALM      30.20F
FRANKFORT +    CLOUDY    35  31  86 SE6       30.21S WCI  30
GREENWOOD *+   CLOUDY    34  30  86 CALM      30.20F
INDIANAPOLIS   CLOUDY    34  27  75 E7        30.19F WCI  28
-EAGLE CREEK   CLOUDY    34  28  79 E3        30.19F
KOKOMO +       MOCLDY    31  29  92 E6        30.21F WCI  25
MARION +       CLOUDY    31  29  92 E5        30.21F WCI  27
MT COMFORT *+  CLOUDY    32  30  93 E3        30.20F
SHELBYVILLE    CLOUDY    34  29  82 E7        30.19F WCI  28
ZIONSVILLE +   CLOUDY    32  29  87 E6        30.20F WCI  26

$$

INZ033-034-041-042-049-050-058-059-041100-
EAST CENTRAL INDIANA

CITY           SKY/WX    TMP DP  RH WIND       PRES   REMARKS
MUNCIE         CLOUDY    33  29  85 E3        30.20F

$$

INZ060-061-067>069-081>083-085>088-041100-
SOUTHWEST INDIANA

CITY           SKY/WX    TMP DP  RH WIND       PRES   REMARKS
EVANSVILLE     CLOUDY    39  34  82 E6        30.17F
HUNTINGBURG *+ LGT RAIN  39  31  72 E6        30.17F
WASHINGTON +   CLOUDY    37  33  84 E5        30.18F

$$

INZ062-063-066-070>080-084-089>092-041100-
SOUTH CENTRAL AND SOUTHEAST INDIANA

CITY           SKY/WX    TMP DP  RH WIND       PRES   REMARKS
BLOOMINGTON    CLOUDY    35  28  75 E7        30.18F WCI  29
MADISON *+     CLOUDY    36  30  80 CALM      30.23S
NORTH VERNON + CLOUDY    36  36 100 CALM      30.21F
SEYMOUR +      CLOUDY    37  32  81 CALM      30.21F

$$




USA.gov is the U.S. government's official web portal to all federal, state and local government web resources and services.